TimeEDT,TemperatureF,Dew PointF,Humidity,Sea Level PressureIn,VisibilityMPH,Wind Direction,Wind SpeedMPH,Gust SpeedMPH,PrecipitationIn,Events,Conditions,WindDirDegrees,DateUTC
12:15 AM,46.4,44.6,93,29.98,10.0,Calm,Calm,-,N/A,,Clear,0,2013-04-13 04:15:00
12:35 AM,46.4,44.6,93,29.97,10.0,Calm,Calm,-,N/A,,Clear,0,2013-04-13 04:35:00
12:55 AM,46.4,46.4,100,29.97,10.0,Calm,Calm,-,N/A,,Clear,0,2013-04-13 04:55:00
1:15 AM,46.4,44.6,93,29.97,10.0,Calm,Calm,-,N/A,,Clear,0,2013-04-13 05:15:00
1:35 AM,44.6,44.6,100,29.97,10.0,Calm,Calm,-,N/A,,Clear,0,2013-04-13 05:35:00
1:55 AM,44.6,44.6,100,29.97,10.0,Calm,Calm,-,N/A,,Clear,0,2013-04-13 05:55:00
2:15 AM,44.6,44.6,100,29.97,10.0,Calm,Calm,-,N/A,,Clear,0,2013-04-13 06:15:00
2:35 AM,42.8,42.8,100,29.97,10.0,Calm,Calm,-,N/A,,Clear,0,2013-04-13 06:35:00
2:55 AM,44.6,44.6,100,29.97,10.0,Calm,Calm,-,N/A,,Clear,0,2013-04-13 06:55:00
3:15 AM,44.6,44.6,100,29.97,10.0,Calm,Calm,-,N/A,,Clear,0,2013-04-13 07:15:00
3:35 AM,44.6,44.6,100,29.97,10.0,Calm,Calm,-,N/A,,Clear,0,2013-04-13 07:35:00
3:55 AM,44.6,44.6,100,29.97,10.0,Calm,Calm,-,N/A,,Clear,0,2013-04-13 07:55:00
4:15 AM,42.8,42.8,100,29.98,10.0,Calm,Calm,-,N/A,,Clear,0,2013-04-13 08:15:00
4:35 AM,42.8,42.8,100,29.98,10.0,Calm,Calm,-,N/A,,Clear,0,2013-04-13 08:35:00
4:55 AM,42.8,42.8,100,29.99,10.0,Calm,Calm,-,N/A,,Clear,0,2013-04-13 08:55:00
5:15 AM,42.8,42.8,100,30.00,10.0,Calm,Calm,-,N/A,,Clear,0,2013-04-13 09:15:00
5:35 AM,44.6,42.8,93,30.00,10.0,WNW,3.5,-,N/A,,Clear,300,2013-04-13 09:35:00
5:55 AM,42.8,42.8,100,30.00,10.0,NNW,3.5,-,N/A,,Clear,330,2013-04-13 09:55:00
6:15 AM,42.8,41.0,93,30.00,10.0,NNW,4.6,-,N/A,,Clear,330,2013-04-13 10:15:00
6:35 AM,42.8,41.0,93,30.00,10.0,NNW,3.5,-,N/A,,Clear,340,2013-04-13 10:35:00
6:55 AM,42.8,41.0,93,30.00,10.0,NNW,4.6,-,N/A,,Clear,330,2013-04-13 10:55:00
7:15 AM,42.8,41.0,93,30.01,10.0,NW,4.6,-,N/A,,Clear,320,2013-04-13 11:15:00
7:35 AM,44.6,42.8,93,30.02,10.0,NW,5.8,-,N/A,,Clear,320,2013-04-13 11:35:00
7:55 AM,44.6,42.8,93,30.03,10.0,NNW,4.6,-,N/A,,Clear,330,2013-04-13 11:55:00
8:15 AM,46.4,44.6,93,30.03,10.0,NNW,3.5,-,N/A,,Clear,330,2013-04-13 12:15:00
8:35 AM,50.0,44.6,82,30.04,10.0,NNW,4.6,-,N/A,,Clear,330,2013-04-13 12:35:00
8:55 AM,51.8,44.6,76,30.05,10.0,NNW,5.8,-,N/A,,Clear,340,2013-04-13 12:55:00
9:15 AM,53.6,44.6,72,30.05,10.0,North,8.1,-,N/A,,Clear,350,2013-04-13 13:15:00
9:35 AM,55.4,42.8,63,30.05,10.0,North,5.8,9.2,N/A,,Clear,350,2013-04-13 13:35:00
9:55 AM,57.2,42.8,59,30.06,10.0,North,8.1,-,N/A,,Clear,350,2013-04-13 13:55:00
10:15 AM,59.0,41.0,51,30.07,10.0,North,8.1,-,N/A,,Clear,360,2013-04-13 14:15:00
10:35 AM,59.0,41.0,51,30.07,10.0,North,8.1,-,N/A,,Clear,350,2013-04-13 14:35:00
10:55 AM,59.0,41.0,51,30.07,10.0,NNW,10.4,16.1,N/A,,Clear,340,2013-04-13 14:55:00
11:15 AM,60.8,41.0,48,30.07,10.0,NNW,12.7,17.3,N/A,,Clear,340,2013-04-13 15:15:00
11:35 AM,60.8,41.0,48,30.08,10.0,NW,10.4,16.1,N/A,,Clear,320,2013-04-13 15:35:00
11:55 AM,62.6,41.0,45,30.08,10.0,NW,11.5,17.3,N/A,,Clear,310,2013-04-13 15:55:00
12:15 PM,62.6,41.0,45,30.08,10.0,North,12.7,17.3,N/A,,Clear,350,2013-04-13 16:15:00
12:35 PM,62.6,41.0,45,30.07,10.0,North,8.1,17.3,N/A,,Clear,360,2013-04-13 16:35:00
12:55 PM,62.6,41.0,45,30.07,10.0,NNW,10.4,-,N/A,,Clear,340,2013-04-13 16:55:00
1:15 PM,64.4,42.8,45,30.07,10.0,NNE,8.1,-,N/A,,Clear,20,2013-04-13 17:15:00
1:35 PM,64.4,41.0,42,30.06,10.0,NNE,3.5,-,N/A,,Clear,20,2013-04-13 17:35:00
1:55 PM,64.4,39.2,40,30.05,10.0,Calm,Calm,-,N/A,,Clear,0,2013-04-13 17:55:00
2:15 PM,66.2,41.0,40,30.04,10.0,NNE,4.6,-,N/A,,Clear,30,2013-04-13 18:15:00
2:35 PM,68.0,39.2,35,30.04,10.0,Calm,Calm,-,N/A,,Clear,0,2013-04-13 18:35:00
2:55 PM,68.0,39.2,35,30.03,10.0,WNW,6.9,-,N/A,,Clear,290,2013-04-13 18:55:00
3:15 PM,68.0,41.0,37,30.03,10.0,NNW,5.8,-,N/A,,Clear,340,2013-04-13 19:15:00
3:35 PM,69.8,41.0,35,30.02,10.0,WNW,3.5,-,N/A,,Clear,300,2013-04-13 19:35:00
3:55 PM,68.0,41.0,37,30.01,10.0,NNW,8.1,-,N/A,,Clear,340,2013-04-13 19:55:00
4:15 PM,69.8,39.2,33,30.01,10.0,Calm,Calm,-,N/A,,Clear,0,2013-04-13 20:15:00
4:35 PM,69.8,41.0,35,30.00,10.0,Calm,Calm,-,N/A,,Clear,0,2013-04-13 20:35:00
4:55 PM,71.6,41.0,33,29.99,10.0,NNE,8.1,-,N/A,,Clear,20,2013-04-13 20:55:00
5:15 PM,69.8,41.0,35,29.99,10.0,NNE,3.5,-,N/A,,Clear,30,2013-04-13 21:15:00
5:35 PM,71.6,41.0,33,29.99,10.0,NNE,4.6,-,N/A,,Clear,30,2013-04-13 21:35:00
5:55 PM,71.6,41.0,33,29.98,10.0,NE,3.5,-,N/A,,Clear,40,2013-04-13 21:55:00
6:15 PM,69.8,41.0,35,29.99,10.0,NE,5.8,-,N/A,,Clear,40,2013-04-13 22:15:00
6:35 PM,69.8,41.0,35,29.99,10.0,NE,4.6,-,N/A,,Clear,50,2013-04-13 22:35:00
6:55 PM,69.8,41.0,35,29.99,10.0,NE,3.5,-,N/A,,Clear,40,2013-04-13 22:55:00
7:15 PM,69.8,39.2,33,29.99,10.0,NE,4.6,-,N/A,,Clear,50,2013-04-13 23:15:00
7:35 PM,69.8,39.2,33,29.99,10.0,NE,3.5,-,N/A,,Clear,40,2013-04-13 23:35:00
8:15 PM,66.2,37.4,35,29.98,10.0,Calm,Calm,-,N/A,,Clear,0,2013-04-14 00:15:00
8:35 PM,62.6,42.8,48,29.99,10.0,Calm,Calm,-,N/A,,Clear,0,2013-04-14 00:35:00
8:55 PM,59.0,44.6,59,30.00,10.0,Calm,Calm,-,N/A,,Clear,0,2013-04-14 00:55:00
9:15 PM,57.2,44.6,63,30.01,10.0,Calm,Calm,-,N/A,,Clear,0,2013-04-14 01:15:00
9:35 PM,57.2,44.6,63,30.01,10.0,Calm,Calm,-,N/A,,Clear,0,2013-04-14 01:35:00
9:55 PM,55.4,44.6,67,30.02,10.0,Calm,Calm,-,N/A,,Clear,0,2013-04-14 01:55:00
10:15 PM,53.6,42.8,67,30.03,10.0,Calm,Calm,-,N/A,,Clear,0,2013-04-14 02:15:00
10:35 PM,53.6,44.6,72,30.03,10.0,Calm,Calm,-,N/A,,Clear,0,2013-04-14 02:35:00
10:55 PM,51.8,42.8,71,30.03,10.0,Calm,Calm,-,N/A,,Clear,0,2013-04-14 02:55:00
11:15 PM,51.8,44.6,76,30.03,10.0,Calm,Calm,-,N/A,,Clear,0,2013-04-14 03:15:00
11:35 PM,50.0,46.4,87,30.03,10.0,Calm,Calm,-,N/A,,Clear,0,2013-04-14 03:35:00
11:55 PM,50.0,46.4,87,30.03,10.0,Calm,Calm,-,N/A,,Clear,0,2013-04-14 03:55:00